Weather History for Prague, Czech Republic

Change the Weather History Date:

Friday, March 25, 2011

  Actual Average Record
Temperature  
Mean Temperature 48 °F -  
Max Temperature 60 °F 54 °F 64 °F (2012)
Min Temperature 35 °F 35 °F 20 °F (2013)
Degree Days  
Heating Degree Days 18    
Moisture  
Dew Point 38 °F    
Average Humidity 69    
Maximum Humidity 93    
Minimum Humidity 40    
Precipitation  
Precipitation 0.00 in 0.05 in - ()
Sea Level Pressure  
Sea Level Pressure 30.07 in    
Wind  
Wind Speed 6 mph ()    
Max Wind Speed 10 mph    
Max Gust Speed -    
Visibility 7.0 miles    
Events      
Averages and records for this station are not official NWS values.
T = Trace of Precipitation, MM = Missing Value Source: Averaged Metar Reports

Daily Weather History Graph

Daily Weather History Graph

Search for Another Location

Airport:

Trip Planner

Search our weather history database for the weather conditions in past years. The results will help you decide how hot, cold, wet, or windy it might be!

Date:

Astronomy

Mar. 25, 2011 Rise Set
Actual Time 5:55 AM CET 6:23 PM CET
Civil Twilight 5:23 AM CET 6:55 PM CET
Nautical Twilight 4:45 AM CET 7:34 PM CET
Astronomical Twilight 4:04 AM CET 8:14 PM CET
Moon 12:59 AM CET (3/25) 9:00 AM CET (3/25)
Length of Visible Light 13h 32m
Length of Day
12h 27m
Waning Gibbous, 61% of the Moon is Illuminated
Mar 25
Waning Gibbous
Mar 26
Last Quarter
Apr 3
New
Apr 11
First Quarter
Apr 18
Full

Hourly Weather History & Observations

Time (CET) Temp. Windchill Dew Point Humidity Pressure Visibility Wind Dir Wind Speed Gust Speed Precip Events Conditions
12:00 AM 41.0 °F 35.8 °F 35.6 °F 81% 30.33 in - SW 8.1 mph - N/A   Clear
12:30 AM 41.0 °F 35.8 °F 35.6 °F 81% 30.30 in - SW 8.1 mph - N/A   Clear
1:00 AM 39 °F - 35 °F 80% 30.35 in 12 mi WSW 8.9 mph - -   Clear
1:00 AM 39.2 °F 34.2 °F 35.6 °F 87% 30.30 in - SW 6.9 mph - N/A   Clear
1:30 AM 39.2 °F 33.6 °F 35.6 °F 87% 30.27 in - SW 8.1 mph - N/A   Clear
2:00 AM 37.4 °F 30.8 °F 33.8 °F 87% 30.27 in - SSW 9.2 mph - N/A   Clear
2:30 AM 39.2 °F 33.0 °F 35.6 °F 87% 30.27 in - SW 9.2 mph - N/A   Clear
3:00 AM 37.4 °F 30.3 °F 33.8 °F 87% 30.24 in - SW 10.4 mph - N/A   Clear
3:30 AM 39.2 °F 33.6 °F 35.6 °F 87% 30.24 in - SW 8.1 mph - N/A   Clear
4:00 AM 41.0 °F 35.2 °F 35.6 °F 81% 30.21 in - SW 9.2 mph - N/A   Clear
4:30 AM 41.0 °F 36.4 °F 35.6 °F 81% 30.21 in - SW 6.9 mph - N/A   Clear
5:00 AM 41.0 °F 35.2 °F 35.6 °F 81% 30.18 in - SW 9.2 mph - N/A   Clear
5:30 AM 41.0 °F 35.8 °F 37.4 °F 87% 30.18 in - WSW 8.1 mph - N/A   Clear
6:00 AM 37.4 °F 32.8 °F 35.6 °F 93% 30.18 in 5.6 mi West 5.8 mph - N/A   Unknown
6:30 AM 37.4 °F 33.8 °F 33.8 °F 87% 30.18 in 5.0 mi WSW 4.6 mph - N/A   Unknown
7:00 AM 40 °F - 37 °F 84% 30.23 in 6 mi WSW 8.9 mph - -   Mist
7:00 AM 39.2 °F 34.2 °F 35.6 °F 87% 30.18 in 5.6 mi SW 6.9 mph - N/A   Unknown
7:30 AM 41.0 °F 35.8 °F 37.4 °F 87% 30.15 in 5.6 mi SW 8.1 mph - N/A   Unknown
8:00 AM 42.8 °F 40.1 °F 39.2 °F 87% 30.15 in - WSW 4.6 mph - N/A   Clear
8:30 AM 46.4 °F 44.3 °F 39.2 °F 76% 30.15 in - West 4.6 mph - N/A   Clear
9:00 AM 48.2 °F - 39.2 °F 71% 30.15 in - WNW 3.5 mph - N/A   Clear
9:30 AM 50.0 °F - 37.4 °F 62% 30.12 in - WNW 3.5 mph - N/A   Clear
10:00 AM 51.8 °F - 37.4 °F 58% 30.12 in - North 4.6 mph - N/A   Clear
10:30 AM 53.6 °F - 37.4 °F 54% 30.12 in 6.2 mi North 4.6 mph - N/A   Partly Cloudy
11:00 AM 53.6 °F - 37.4 °F 54% 30.09 in 6.2 mi Variable 2.3 mph - N/A   Partly Cloudy
11:30 AM 55.4 °F - 39.2 °F 54% 30.09 in 6.2 mi Variable 2.3 mph - N/A   Partly Cloudy
12:00 PM 55.4 °F - 39.2 °F 54% 30.06 in 6.2 mi West 4.6 mph - N/A   Partly Cloudy
12:30 PM 55.4 °F - 39.2 °F 54% 30.04 in 6.2 mi Variable 2.3 mph - N/A   Partly Cloudy
1:00 PM 56 °F - 38 °F 40% 30.04 in 16 mi North 4.5 mph - -   Scattered Clouds
1:00 PM 57.2 °F - 39.2 °F 51% 30.04 in 6.2 mi North 3.5 mph - N/A   Partly Cloudy
1:30 PM 57.2 °F - 39.2 °F 51% 30.01 in 6.2 mi NNW 3.5 mph - N/A   Partly Cloudy
2:00 PM 57.2 °F - 39.2 °F 51% 29.98 in 6.2 mi Variable 2.3 mph - N/A   Partly Cloudy
2:30 PM 59.0 °F - 39.2 °F 48% 29.98 in 6.2 mi North 4.6 mph - N/A   Partly Cloudy
3:00 PM 59.0 °F - 37.4 °F 45% 29.95 in - Variable 2.3 mph - N/A   Clear
3:30 PM 59.0 °F - 39.2 °F 48% 29.95 in - ENE 6.9 mph - N/A   Clear
4:00 PM 59.0 °F - 39.2 °F 48% 29.92 in - NNE 8.1 mph - N/A   Clear
4:30 PM 59.0 °F - 39.2 °F 48% 29.92 in - NNE 5.8 mph - N/A   Clear
5:00 PM 57.2 °F - 39.2 °F 51% 29.92 in - NNE 10.4 mph - N/A   Clear
5:30 PM 53.6 °F - 39.2 °F 58% 29.92 in - NNE 9.2 mph - N/A   Clear
6:00 PM 53.6 °F - 39.2 °F 58% 29.92 in - NNE 6.9 mph - N/A   Clear
6:30 PM 51.8 °F - 39.2 °F 62% 29.89 in - NNE 6.9 mph - N/A   Clear
7:00 PM 50 °F - 38 °F 54% 29.93 in 12 mi NE 6.7 mph - -   Partly Cloudy
7:00 PM 50.0 °F - 37.4 °F 62% 29.89 in - NNE 5.8 mph - N/A   Clear
7:30 PM 50.0 °F - 37.4 °F 62% 29.89 in - NE 4.6 mph - N/A   Clear
8:00 PM 48.2 °F - 37.4 °F 66% 29.89 in - NE 5.8 mph - N/A   Clear
8:30 PM 46.4 °F 45.2 °F 37.4 °F 71% 29.92 in - NNE 3.5 mph - N/A   Clear
9:00 PM 48.2 °F - 37.4 °F 66% 29.92 in 6.2 mi NE 3.5 mph - N/A   Mostly Cloudy
9:30 PM 48.2 °F - 39.2 °F 71% 29.89 in 6.2 mi SE 3.5 mph - N/A   Partly Cloudy
10:00 PM 46.4 °F 45.2 °F 39.2 °F 76% 29.89 in 6.2 mi SE 3.5 mph - N/A   Scattered Clouds
10:30 PM 46.4 °F - 39.2 °F 76% 29.89 in 6.2 mi South 2.3 mph - N/A   Scattered Clouds
11:00 PM 46.4 °F 44.3 °F 39.2 °F 76% 29.86 in 6.2 mi SSW 4.6 mph - N/A   Scattered Clouds
11:30 PM 46.4 °F 44.3 °F 39.2 °F 76% 29.86 in 6.2 mi SW 4.6 mph - N/A   Scattered Clouds